Regional Weather Roundup
Issued by NWS

Home | Current Version | Previous Version | Graphics & Text | Print | Product List | Glossary On
Versions: 1 2 3 4 5 6 7 8 9 10 11 12 13 14 15 16 17 18 19 20 21 22 23 24 25 26
000
ASUS45 KBOU 170010
RWRCO

WEATHER ROUNDUP FOR COLORADO
NATIONAL WEATHER SERVICE DENVER/BOULDER CO
500 PM MST TUE JAN 16 2018

NOTE: "FAIR" INDICATES FEW OR NO CLOUDS BELOW 12000 FEET WITH NO
SIGNIFICANT WEATHER AND/OR OBSTRUCTIONS TO VISIBILITY.

COZ001>005-013-030-031-170100-
...NORTHWEST COLORADO...

CITY           SKY/WX    TMP DP  RH WIND       PRES   REMARKS
CRAIG          FAIR      26   4  38 VRB5      30.31F WCI  20
HAYDEN         FAIR      23   6  48 SE6       30.31  WCI  16
MEEKER         FAIR      35   6  29 CALM      30.29S
RABBIT EARS PA FAIR      19   5  53 W5        30.28F WCI  13
STEAMBOAT SPGS NOT AVBL
WALDEN         FAIR      19   0  42 NW6       30.31R WCI  11
$$

COZ006>008-011-170100-
...WEST CENTRAL VALLEYS...

CITY           SKY/WX    TMP DP  RH WIND       PRES   REMARKS
GRAND JUNCTION FAIR      42  13  30 CALM      30.30F
MONTROSE       FAIR      38  17  42 N6        30.32S
EAGLE          FAIR      31   7  36 SW3       30.34F
RIFLE          FAIR      36  15  42 SW3       30.31S
DELTA          FAIR      43  13  29 CALM      30.31F
NUCLA          NOT AVBL
$$

COZ017>023-064>068-170100-
...SOUTHWEST COLORADO...

CITY           SKY/WX    TMP DP  RH WIND       PRES   REMARKS
DURANGO        FAIR      37  21  52 SW5       30.30S
CORTEZ         FAIR      39  22  50 S9        30.30S
PAGOSA SPRINGS FAIR      37  16  43 S3        30.31S
TELLURIDE      FAIR      33   4  29 W7        30.31S WCI  26
WOLF CREEK PAS NOT AVBL
$$

COZ009-010-012-014-032>034-037-058>063-170100-
...CENTRAL COLORADO...

CITY           SKY/WX    TMP DP  RH WIND       PRES   REMARKS
ASPEN          FAIR      27   3  35 S7        30.28S WCI  19
BUENA VISTA    FAIR      25  -1  33 S5        30.26R WCI  19
COPPER MTN     NOT AVBL
BERTHOUD PASS  FAIR      12   1  62 NW21G30   30.28S WCI  -6
COTTONWOOD PAS   N/A     36  -9  14 CALM      30.27S
GUNNISON       FAIR      29  12  49 S3        30.31
KREMMLING      FAIR      23   1  39 CALM      30.37S
LEADVILLE      FAIR      26 -11  19 N7        30.28R WCI  18
MONARCH PASS   FAIR      19   1  45 SW21      30.39F WCI   3
SALIDA         FAIR      34   6  31 CALM      30.33S
SUNLIGHT       FAIR      25  -8  24 CALM      30.34F
WILKERSON PASS FAIR      27 -17  14 CALM      30.30S
$$

COZ069>075-170100-
...SAN LUIS VALLEY/SANGRE DE CRISTO MOUNTAINS...

CITY           SKY/WX    TMP DP  RH WIND       PRES   REMARKS
ALAMOSA        FAIR      27  13  55 SW7       30.31S WCI  19
DEL NORTE      FAIR      28  13  53 SE3       30.31S
LA VETA PASS   FAIR      19  14  79 SW17        N/A  WCI   4
SAGUACHE       FAIR      27  14  59 SE3       30.32R
$$

COZ035-036-038>040-170100-
...NORTHERN COLORADO FRONT RANGE...

CITY           SKY/WX    TMP DP  RH WIND       PRES   REMARKS
DENVER INTL AP FAIR      27   3  35 SE9       30.28F WCI  18
DMNS CITY PARK NOT AVBL
AURORA         PTCLDY    28   5  37 SE7       30.28F WCI  21
FRONT RANGE AP PTCLDY    30  10  43 SE9       30.30F WCI  22
ERIE MUNI ARPT FAIR      31   4  31 E5        30.35F WCI  26
BOULDER MUN AP FAIR      28  18  64 N3        30.29F
CENTENNIAL     FAIR      31  -1  25 E5        30.27F WCI  26
BROOMFIELD     PTCLDY    32   0  25 S6        30.29F WCI  26
FORT COLLINS   FAIR      25  14  63 NE5       30.32S WCI  19
LONGMONT       FAIR      31  15  51 CALM      30.32S
$$

COZ041-046-047-076>085-087-088-170100-
...PIKES PEAK/PALMER DIVIDE AND SOUTHERN FOOTHILLS...

CITY           SKY/WX    TMP DP  RH WIND       PRES   REMARKS
COLO. SPRINGS  FAIR      25   2  37 S9        30.33R WCI  15
A. F. ACADEMY  FAIR      24   4  41 S9        30.30S WCI  14
SCHRIEVER AFB  FAIR      20   4  49 SW7       30.33S WCI  11
CHEYENNE MTN   FAIR      21   6  51 S5        30.24R WCI  15
ELLICOTT         N/A    N/A N/A N/A SW6       30.32S
FALCON         FAIR      22   2  42 SW8       30.31S WCI  13
FORT CARSON    FAIR      24   5  44 S8        30.32R WCI  15
LIMON          FAIR      22   2  42 S9        30.33S WCI  12
MONUMENT HILL  FAIR      23  10  58 S7        30.29S WCI  15
CANON CITY     FAIR      30  14  51 E5        30.35S WCI  25
WALSENBURG     FAIR      30  19  64 SE6       30.31F WCI  24
TRINIDAD       FAIR      29   9  43 E5        30.33S WCI  24
$$

COZ042>045-048>051-090-091-170100-
...NORTHEAST COLORADO...

CITY           SKY/WX    TMP DP  RH WIND       PRES   REMARKS
GREELEY ARPT   FAIR      27   7  42 CALM      30.33F
AKRON          FAIR      22   5  48 SE9       30.33F WCI  12
BURLINGTON     FAIR      19   1  45 S10       30.40F WCI   7
WRAY           FAIR      21   0  39 S6        30.42F WCI  14
YUMA           FAIR      19   0  42 SE8       30.38F WCI   9
STERLING       FAIR      27   1  33 SW6       30.35F WCI  20
HOLYOKE        FAIR      21   9  58 S9        30.40F WCI  11
FORT MORGAN    FAIR      25   2  38 CALM      30.34F
$$

COZ086-089-092>099-170100-
...SOUTHEAST COLORADO...

CITY           SKY/WX    TMP DP  RH WIND       PRES   REMARKS
PUEBLO         FAIR      28  13  53 E7        30.37S WCI  21
LA JUNTA       FAIR      27   0  31 E7        30.40F WCI  19
LAMAR          FAIR      22  -5  30 SE8       30.43F WCI  12
SPRINGFIELD      N/A     19  -1  41 S9        30.41F WCI   8
$$




USA.gov is the U.S. government's official web portal to all federal, state and local government web resources and services.